This demonstration page uses our WeatherBlox Daily Observations layout. Learn more.

39.92423, -83.80882

Hourly Observations for April 2, 2019

Temp ( °F °C ) Dew Point ( °F °C ) Humidity (%) Winds ( mph kmh ) Pressure ( in mb ) Visibility ( mi km ) Precip ( " mm )
12:56 am 00:56 Clear 32 0 24 -4.4 73 73 SE 6 9 30.25 1024 10 16.0934 0 0
1:56 am 01:56 Clear 32 0 25 -3.9 75 75 SE 7 11 30.24 1024 10 16.0934 0 0
2:56 am 02:56 Clear 31 -0.6 24 -4.4 76 76 SE 7 11 30.21 1023 10 16.0934 0 0
3:56 am 03:56 Clear 30 -1.1 23 -5 75 75 SE 7 11 30.19 1023 10 16.0934 0 0
4:56 am 04:56 Clear 30 -1.1 23 -5 75 75 SE 5 7 30.18 1022 10 16.0934 0 0
5:56 am 05:56 Clear 28 -2.2 23 -5 81 81 Calm 30.18 1022 10 16.0934 0 0
6:56 am 06:56 Clear 28 -2.2 24 -4.4 85 85 SE 5 7 30.18 1022 10 16.0934 0 0
7:56 am 07:56 Sunny 29 -1.7 25 -3.9 85 85 ESE 3 6 30.18 1022 10 16.0934 0 0
8:56 am 08:56 Sunny 32 0 28 -2.2 85 85 ESE 3 6 30.19 1022 10 16.0934 0 0
9:56 am 09:56 Sunny 37 2.8 24 -4.4 59 59 Calm 30.17 1022 10 16.0934 0 0
10:56 am 10:56 Sunny 41 5 26 -3.3 55 55 S 5 7 30.16 1021 10 16.0934 0 0
11:56 am 11:56 Sunny 47 8.3 25 -3.9 42 42 S 8 13 30.14 1021 10 16.0934 0 0
12:56 pm 12:56 Sunny 48 8.9 26 -3.3 42 42 WSW 9 15 30.12 1020 10 16.0934 0 0
1:56 pm 13:56 Sunny 51 10.6 26 -3.3 38 38 VRB 3 6 30.11 1020 10 16.0934 0 0
2:56 pm 14:56 Sunny 53 11.7 27 -2.8 37 37 S 8 13 30.09 1019 10 16.0934 0 0
3:56 pm 15:56 Sunny 53 11.7 26 -3.3 35 35 SSE 7 11 30.06 1018 10 16.0934 0 0
4:56 pm 16:56 Sunny 55 12.8 30 -1.1 38 38 SW 12 19 30.06 1018 10 16.0934 0 0
5:56 pm 17:56 Sunny 55 12.8 27 -2.8 34 34 SW 10 17 30.05 1018 10 16.0934 0 0
6:56 pm 18:56 Sunny 54 12.2 28 -2.2 37 37 SW 12 19 30.05 1018 10 16.0934 0 0
7:56 pm 19:56 Sunny 50 10 29 -1.7 44 44 SSW 6 9 30.06 1018 10 16.0934 0 0
8:56 pm 20:56 Clear 47 8.3 29 -1.7 50 50 SSW 6 9 30.07 1018 10 16.0934 0 0
9:56 pm 21:56 Mostly Clear 46 7.8 28 -2.2 50 50 SSW 6 9 30.09 1019 10 16.0934 0 0
10:56 pm 22:56 Partly Cloudy 43 6.1 30 -1.1 60 60 SSW 6 9 30.09 1019 10 16.0934 0 0
11:56 pm 23:56 Mostly Clear 43 6.1 29 -1.7 58 58 SW 8 13 30.09 1019 10 16.0934 0 0

Powered by AerisWeather